Weather Service Report


751 
ASUS46 KSEW 251810
RWRWA 

WASHINGTON REGIONAL WEATHER ROUNDUP
NATIONAL WEATHER SERVICE SEATTLE WA
1100 AM PDT SUN JUN 25 2017

NOTE:"FAIR" INDICATES FEW OR NO CLOUDS BELOW 12,000 FEET WITH NO 
SIGNIFICANT WEATHER AND/OR OBSTRUCTIONS TO VISIBILITY.

WAZ507-509-555>559-251900-
SEATTLE, TACOMA, EVERETT, AND VICINITY
  
CITY           SKY/WX    TMP DP  RH WIND       PRES   REMARKS
EVERETT        SUNNY     81  50  33 VRB5      29.94F                  
6HR MIN TEMP:  62; 6HR MAX TEMP:  81;                                

BOEING FIELD   MOSUNNY   80  56  43 NW7       29.90F                  
6HR MIN TEMP:  63; 6HR MAX TEMP:  80;                                

RENTON         SUNNY     80  58  46 NW6       29.89F                  
6HR MIN TEMP:  61; 6HR MAX TEMP:  80;                                

SEATAC AIRPORT MOSUNNY   84  54  35 N7        29.92F                  
6HR MIN TEMP:  65; 6HR MAX TEMP:  84;                                

JBLM-MCCHORD   SUNNY     81  58  44 N3        29.91F                  
6HR MIN TEMP:  54; 6HR MAX TEMP:  81;                                

PUYALLUP       FAIR      82  55  39 CALM      29.92S                  
BREMERTON      SUNNY     83  57  41 NE7       29.92F                  
6HR MIN TEMP:  61; 6HR MAX TEMP:  83;                                

JBLM-FT LEWIS  SUNNY     81  62  51 SW6       29.90F                  
6HR MIN TEMP:  55; 6HR MAX TEMP:  82;                                

TACOMA NARROWS SUNNY     80  53  39 N7        29.91F                  
6HR MIN TEMP:  59; 6HR MAX TEMP:  80;                                

$$
 
WAZ001-503-506-510-514-515-251900-
NORTH INTERIOR
  
CITY           SKY/WX    TMP DP  RH WIND       PRES   REMARKS
BELLINGHAM     SUNNY     81  57  43 VRB3      29.93F                  
6HR MIN TEMP:  55; 6HR MAX TEMP:  81;                                

FRIDAY HARBOR  MOSUNNY   80  53  39 N8        29.94F                  
6HR MIN TEMP:  53; 6HR MAX TEMP:  80;                                

EASTSOUND      MOSUNNY   68  57  68 NW8       29.95S                  
PORT ANGELES   SUNNY     75  50  41 VRB6      29.95F                  
6HR MIN TEMP:  56; 6HR MAX TEMP:  78;                                

EDIZ HOOK      FAIR      71  48  44 CALM      29.94S                  
6HR MIN TEMP:  53; 6HR MAX TEMP:  71;                                

PORT TOWNSEND  FAIR      79  54  41 SW8       29.92F                  
NAS WHIDBEY    PTSUNNY   72  52  49 NW7       29.96F                  
6HR MIN TEMP:  56; 6HR MAX TEMP:  73;                                

ARLINGTON      MOSUNNY   81  58  45 NW5       29.91F                  
6HR MIN TEMP:  54; 6HR MAX TEMP:  81;                                

BURLINGTON     SUNNY     77  61  57 NW7       29.92F                  
$$
 
WAZ020-022-039-040-504-511-512-251900-
SOUTHWEST INTERIOR
  
CITY           SKY/WX    TMP DP  RH WIND       PRES   REMARKS
SHELTON        NOT AVBL                                               
OLYMPIA        SUNNY     80  55  42 N6        29.91F                  
6HR MIN TEMP:  53; 6HR MAX TEMP:  80;                                

CHEHALIS       FAIR      81  59  47 NE7       29.90F                  
KELSO          SUNNY     84  55  36 VRB7      29.87F                  
6HR MIN TEMP:  57; 6HR MAX TEMP:  84;                                

VANCOUVER      SUNNY     85  57  38 SW5       29.84F                  
6HR MIN TEMP:  60; 6HR MAX TEMP:  85;                                

SCAPPOOSE, OR  SUNNY     86  66  51 E5        29.84F                  
6HR MIN TEMP:  56; 6HR MAX TEMP:  87;                                

PORTLAND, OR   MOSUNNY   85  51  31 NW7       29.85F                  
6HR MIN TEMP:  66; 6HR MAX TEMP:  85;                                

$$
 
WAZ021-516-517-251900-
WASHINGTON COAST
  
CITY           SKY/WX    TMP DP  RH WIND       PRES   REMARKS
FORKS          MOSUNNY   78  54  43 SW8       29.91R                  
6HR MIN TEMP:  54; 6HR MAX TEMP:  82;                                

HOQUIAM        MOSUNNY   76  60  57 SW15      29.90R                  
6HR MIN TEMP:  61; 6HR MAX TEMP:  82;                                

ASTORIA, OR    SUNNY     62  55  77 SW15      29.92R                  
6HR MIN TEMP:  55; 6HR MAX TEMP:  62;                                

$$
 
WAZ019-023-024-040-567>569-251900-
CASCADE MOUNTAINS AND COLUMBIA GORGE
  
CITY           SKY/WX    TMP DP  RH WIND       PRES   REMARKS
STAMPEDE PASS  SUNNY     77  44  30 VRB6      30.14F                  
6HR MIN TEMP:  57; 6HR MAX TEMP:  77;                                

TROUTDALE, OR  SUNNY     89  48  24 E18       29.83F                  
6HR MIN TEMP:  74; 6HR MAX TEMP:  89;                                

HOOD RIVER, OR CLEAR     81  50  34 N3        29.97F                  
THE DALLES, OR SUNNY     85  44  23 CALM      29.95F                  
6HR MIN TEMP:  55; 6HR MAX TEMP:  85;                                

$$

WAZ026-027-041>044-520-521-251900-
EAST SLOPES
  
CITY           SKY/WX    TMP DP  RH WIND       PRES   REMARKS
OMAK           MOSUNNY   83  46  27 S5        30.06F                  
6HR MIN TEMP:  53; 6HR MAX TEMP:  83;                                

WENATCHEE      MOSUNNY   79  43  27 CALM      30.04F                  
6HR MIN TEMP:  59; 6HR MAX TEMP:  79;                                

ELLENSBURG     SUNNY     84  45  25 VRB3      30.05F                  
6HR MIN TEMP:  52; 6HR MAX TEMP:  84;                                

YAKIMA         SUNNY     87  51  28 W8        30.01F                  
6HR MIN TEMP:  52; 6HR MAX TEMP:  88;                                

SUNNYSIDE ARPT CLEAR     79  53  40 CALM      29.99F                  
6HR MIN TEMP:  49; 6HR MAX TEMP:  79;                                

YAKIMA TC      FAIR      87  43  21 W7        29.99                   
6HR MIN TEMP:  54; 6HR MAX TEMP:  87;                                

$$

WAZ028-034-035-251900-
COLUMBIA BASIN
  
CITY           SKY/WX    TMP DP  RH WIND       PRES   REMARKS
EPHRATA        SUNNY     88  41  19 N9        30.03F                  
6HR MIN TEMP:  60; 6HR MAX TEMP:  88;                                

MOSES LAKE     SUNNY     89  44  20 NE6       30.03F                  
6HR MIN TEMP:  56; 6HR MAX TEMP:  89;                                

PASCO          SUNNY     83  52  34 VRB6      30.00F                  
6HR MIN TEMP:  51; 6HR MAX TEMP:  83;                                

RICHLAND ARPT  CLEAR     83  52  34 E7        30.00F                  
6HR MIN TEMP:  55; 6HR MAX TEMP:  83;                                

HERMISTON, OR  SUNNY     85  48  27 N7        29.98F                  
6HR MIN TEMP:  48; 6HR MAX TEMP:  85;                                

$$

WAZ036>038-251900-
NORTHEAST WASHINGTON
  
CITY           SKY/WX    TMP DP  RH WIND       PRES   REMARKS
SPOKANE GEIGER MOSUNNY   79  46  31 NE8       30.12S                  
6HR MIN TEMP:  61; 6HR MAX TEMP:  79;                                

SPOKANE FELTS  SUNNY     83  49  30 VRB3      30.10F                  
6HR MIN TEMP:  52; 6HR MAX TEMP:  83;                                

FAIRCHILD AFB  SUNNY     79  45  29 E8        30.12S                  
6HR MIN TEMP:  54; 6HR MAX TEMP:  80;                                

COEURDALENE,ID MOSUNNY   79  51  37 N12       30.12F                  
6HR MIN TEMP:  55; 6HR MAX TEMP:  79;                                

DEER PARK      SUNNY     83  45  26 VRB7      30.12F                  
6HR MIN TEMP:  47; 6HR MAX TEMP:  83;                                

$$

WAZ029>033-251900-
SOUTHEAST WASHINGTON
  
CITY           SKY/WX    TMP DP  RH WIND       PRES   REMARKS
PULLMAN        SUNNY     82  49  31 E10       30.11F                  
6HR MIN TEMP:  60; 6HR MAX TEMP:  82;                                

LEWISTON, ID   SUNNY     81  52  36 NE3       30.05F                  
6HR MIN TEMP:  57; 6HR MAX TEMP:  81;                                

WALLA WALLA    SUNNY     84  45  25 VRB6      30.01F                  
6HR MIN TEMP:  61; 6HR MAX TEMP:  84;                                

PENDLETON, OR  SUNNY     88  42  20 MISG      30.01F                  
6HR MIN TEMP:  54; 6HR MAX TEMP:  88;                                

$$
  

Return to Home page


Western Regional Climate Center, wrcc@dri.edu